St. Francis, KS

10:43 PM CDT on July 21, 2017 (GMT -0500)
Cheyenne County Municipal

Weather History for KSYF - June, 2013

Change the Weather History Date:

Wednesday, June 26, 2013

  Actual Average Record
Temperature  
Mean Temperature 84 °F -  
Max Temperature 104 °F 89 °F 104 °F (2013)
Min Temperature 64 °F 58 °F 53 °F (2017)
Cooling Degree Days 18    
Growing Degree Days 34 (Base 50)    
Moisture  
Dew Point 42 °F    
Average Humidity 27    
Maximum Humidity 55    
Minimum Humidity 7    
Precipitation  
Precipitation 0.00 in - - ()
Sea Level Pressure  
Sea Level Pressure 29.97 in    
Wind  
Wind Speed 7 mph (SSE)    
Max Wind Speed 16 mph    
Max Gust Speed 20 mph    
Visibility 10 miles    
Events      
Averages and records for this station are not official NWS values.
T = Trace of Precipitation, MM = Missing Value Source: NWS Daily Summary

Daily Weather History Graph

Daily Weather History Graph

Search for Another Location

Airport or City:

Trip Planner

Search our weather history database for the weather conditions in past years. The results will help you decide how hot, cold, wet, or windy it might be!

Date:

Astronomy

Jun. 26, 2013 Rise Set
Actual Time 6:20 AM CDT 9:19 PM CDT
Civil Twilight 5:48 AM CDT 9:51 PM CDT
Nautical Twilight 5:06 AM CDT 10:33 PM CDT
Astronomical Twilight 4:18 AM CDT 11:21 PM CDT
Moon 11:44 PM CDT (6/26) 10:14 AM CDT (6/26)
Length of Visible Light 16h 03m
Length of Day
14h 58m
Waning Gibbous, 85% of the Moon is Illuminated
Jun 26
Waning Gibbous
Jun 29
Last Quarter
Jul 8
New
Jul 15
First Quarter
Jul 22
Full

Hourly Weather History & Observations

Time (CDT) Temp. Dew Point Humidity Pressure Visibility Wind Dir Wind Speed Gust Speed Precip Events Conditions
12:15 AM 71.8 °F 46.9 °F 41% 29.91 in 10.0 mi Calm Calm - N/A   Clear
12:35 AM 72.5 °F 46.8 °F 40% 29.92 in 10.0 mi Calm Calm - N/A   Clear
12:55 AM 70.2 °F 47.7 °F 45% 29.92 in 10.0 mi SE 9.2 mph - N/A   Clear
1:15 AM 68.9 °F 48.6 °F 48% 29.93 in 10.0 mi SE 10.4 mph - N/A   Clear
1:35 AM 71.6 °F 47.8 °F 43% 29.93 in 10.0 mi SE 9.2 mph - N/A   Clear
1:55 AM 70.9 °F 47.8 °F 44% 29.93 in 10.0 mi SSE 5.8 mph - N/A   Clear
2:15 AM 70.7 °F 48.0 °F 44% 29.93 in 10.0 mi Calm Calm - N/A   Clear
2:35 AM 71.1 °F 47.8 °F 44% 29.93 in 10.0 mi South 3.5 mph - N/A   Clear
2:55 AM 70.9 °F 46.9 °F 42% 29.92 in 10.0 mi SSE 8.1 mph - N/A   Clear
3:15 AM 72.9 °F 45.5 °F 38% 29.93 in 10.0 mi SSE 6.9 mph - N/A   Clear
3:35 AM 70.7 °F 46.2 °F 42% 29.93 in 10.0 mi South 4.6 mph - N/A   Clear
3:55 AM 66.7 °F 47.8 °F 51% 29.93 in 10.0 mi South 8.1 mph - N/A   Clear
4:15 AM 74.1 °F 43.7 °F 34% 29.93 in 10.0 mi South 11.5 mph - N/A   Clear
4:35 AM 69.6 °F 46.4 °F 43% 29.93 in 10.0 mi WNW 4.6 mph - N/A   Clear
4:55 AM 67.1 °F 47.3 °F 49% 29.94 in 10.0 mi SW 4.6 mph - N/A   Clear
5:15 AM 68.4 °F 46.6 °F 46% 29.94 in 10.0 mi SSW 5.8 mph - N/A   Clear
5:35 AM 66.4 °F 47.7 °F 51% 29.94 in 10.0 mi WSW 5.8 mph - N/A   Clear
5:55 AM 65.8 °F 47.5 °F 52% 29.96 in 10.0 mi SW 4.6 mph - N/A   Clear
6:15 AM 64.6 °F 48.2 °F 55% 29.96 in 10.0 mi SW 8.1 mph - N/A   Clear
6:35 AM 64.6 °F 48.2 °F 55% 29.96 in 10.0 mi SW 10.4 mph - N/A   Clear
6:55 AM 64.9 °F 48.2 °F 55% 29.97 in 10.0 mi SW 8.1 mph - N/A   Clear
7:15 AM 66.2 °F 48.9 °F 54% 29.98 in 10.0 mi WSW 5.8 mph - N/A   Clear
7:35 AM 68.5 °F 48.6 °F 49% 29.98 in 10.0 mi SW 8.1 mph - N/A   Clear
7:55 AM 70.5 °F 48.2 °F 45% 29.99 in 10.0 mi SW 11.5 mph - N/A   Clear
8:15 AM 72.3 °F 48.6 °F 43% 29.99 in 10.0 mi SW 9.2 mph - N/A   Clear
8:35 AM 74.3 °F 48.6 °F 40% 29.99 in 10.0 mi WSW 9.2 mph - N/A   Clear
8:55 AM 76.8 °F 49.3 °F 38% 30.00 in 10.0 mi WSW 6.9 mph - N/A   Clear
9:15 AM 79.9 °F 49.3 °F 34% 30.00 in 10.0 mi West 3.5 mph - N/A   Clear
9:55 AM 84.7 °F 49.3 °F 29% 30.02 in 10.0 mi NNW 4.6 mph - N/A   Clear
10:15 AM 87.1 °F 48.0 °F 26% 30.02 in 10.0 mi North 4.6 mph - N/A   Clear
10:35 AM 88.3 °F 49.6 °F 26% 30.02 in 10.0 mi NNE 5.8 mph - N/A   Clear
10:55 AM 88.9 °F 48.9 °F 25% 30.02 in 10.0 mi NE 5.8 mph - N/A   Clear
11:15 AM 90.7 °F 48.7 °F 24% 30.03 in 10.0 mi NE 5.8 mph - N/A   Clear
11:35 AM 92.7 °F 47.8 °F 21% 30.03 in 10.0 mi NNE 8.1 mph - N/A   Clear
11:55 AM 94.1 °F 46.2 °F 19% 30.02 in 10.0 mi NE 6.9 mph - N/A   Clear
12:15 PM 95.7 °F 43.9 °F 17% 30.02 in 10.0 mi ENE 6.9 mph - N/A   Clear
12:35 PM 96.1 °F 42.6 °F 16% 30.02 in 10.0 mi North 3.5 mph - N/A   Clear
12:55 PM 96.6 °F 41.7 °F 15% 30.02 in 10.0 mi ENE 6.9 mph - N/A   Clear
1:15 PM 97.7 °F 41.4 °F 14% 30.01 in 10.0 mi East 6.9 mph - N/A   Clear
1:35 PM 98.1 °F 39.2 °F 13% 30.01 in 10.0 mi ENE 4.6 mph - N/A   Clear
1:55 PM 98.6 °F 38.3 °F 12% 30.00 in 10.0 mi North 5.8 mph - N/A   Clear
2:15 PM 100.9 °F 36.1 °F 11% 29.99 in 10.0 mi ENE 5.8 mph - N/A   Clear
2:35 PM 99.5 °F 32.4 °F 10% 29.99 in 10.0 mi South 8.1 mph - N/A   Clear
2:55 PM 100.9 °F 29.8 °F 8% 29.99 in 10.0 mi ESE 3.5 mph - N/A   Clear
3:15 PM 102.7 °F 28.8 °F 7% 29.98 in 10.0 mi West 6.9 mph 16.1 mph N/A   Clear
3:35 PM 102.0 °F 29.8 °F 8% 29.98 in 10.0 mi SE 5.8 mph 18.4 mph N/A   Clear
3:55 PM 102.4 °F 30.4 °F 8% 29.98 in 10.0 mi SSW 9.2 mph - N/A   Clear
4:15 PM 99.9 °F 32.5 °F 9% 29.97 in 10.0 mi SE 9.2 mph - N/A   Clear
4:35 PM 102.9 °F 31.8 °F 8% 29.97 in 10.0 mi SSE 4.6 mph - N/A   Clear
4:55 PM 100.6 °F 26.2 °F 7% 29.96 in 10.0 mi NE 4.6 mph - N/A   Clear
5:15 PM 101.1 °F 26.4 °F 7% 29.97 in 10.0 mi SE 6.9 mph - N/A   Clear
5:35 PM 103.1 °F 31.1 °F 8% 29.96 in 10.0 mi SE 10.4 mph - N/A   Clear
5:55 PM 103.1 °F 27.9 °F 7% 29.96 in 10.0 mi South 12.7 mph - N/A   Clear
6:15 PM 101.7 °F 29.5 °F 8% 29.96 in 10.0 mi South 4.6 mph - N/A   Clear
6:35 PM 100.8 °F 31.1 °F 9% 29.95 in 10.0 mi SSE 9.2 mph - N/A   Clear
6:55 PM 100.8 °F 32.5 °F 9% 29.95 in 10.0 mi South 12.7 mph 17.3 mph N/A   Clear
7:15 PM 99.9 °F 32.5 °F 9% 29.95 in 10.0 mi SSE 12.7 mph 19.6 mph N/A   Clear
7:35 PM 98.1 °F 32.4 °F 10% 29.95 in 10.0 mi SSE 11.5 mph - N/A   Clear
7:55 PM 97.7 °F 32.0 °F 10% 29.95 in 10.0 mi SE 13.8 mph 19.6 mph N/A   Clear
8:15 PM 97.7 °F 33.4 °F 11% 29.95 in 10.0 mi SE 11.5 mph 17.3 mph N/A   Clear
8:35 PM 95.9 °F 35.8 °F 12% 29.95 in 10.0 mi SE 13.8 mph 18.4 mph N/A   Clear
8:55 PM 93.7 °F 37.9 °F 14% 29.95 in 10.0 mi SE 16.1 mph - N/A   Clear
9:15 PM 91.2 °F 39.9 °F 17% 29.95 in 10.0 mi SE 11.5 mph - N/A   Clear
9:35 PM 88.5 °F 41.5 °F 19% 29.96 in 10.0 mi SE 10.4 mph - N/A   Clear
9:55 PM 86.9 °F 41.9 °F 21% 29.96 in 10.0 mi SE 11.5 mph - N/A   Clear
10:15 PM 85.5 °F 42.8 °F 22% 29.96 in 10.0 mi SE 12.7 mph - N/A   Clear
10:35 PM 85.1 °F 42.1 °F 22% 29.96 in 10.0 mi SE 10.4 mph - N/A   Clear
10:55 PM 84.7 °F 42.4 °F 23% 29.97 in 10.0 mi SE 15.0 mph - N/A   Clear
11:15 PM 82.6 °F 44.4 °F 26% 29.97 in 10.0 mi SSE 13.8 mph - N/A   Clear
11:35 PM 81.9 °F 45.7 °F 28% 29.97 in 10.0 mi SSE 11.5 mph - N/A   Clear
11:55 PM 83.8 °F 46.6 °F 27% 29.98 in 10.0 mi SSE 15.0 mph - N/A   Clear